This is the latest recevied weather packets stored in our database for station/object KZ4HT-13. If no packets are shown the sender has not sent any weather packets the latest 10 day(s).
| Time | Temp. | Humidity | Pressure | Rain* | Wind** | Luminosity | Snow |
|---|---|---|---|---|---|---|---|
| 1777948875 | 20.56° C | 73% | 1017.1 hPa | 0 mm | - | - | - |
| 1777947693 | 20.56° C | 72% | 1017 hPa | 0 mm | - | - | - |
| 1777936242 | 24.44° C | 57% | 1015.2 hPa | 0 mm | - | - | - |
| 1777933836 | 25° C | 55% | 1015.4 hPa | 0 mm | - | - | - |
| 1777932633 | 25.56° C | 54% | 1015.3 hPa | 0 mm | - | - | - |
| 1777928420 | 27.22° C | 50% | 1015.4 hPa | 0 mm | - | - | - |
| 1777927819 | 26.67° C | 51% | 1015.2 hPa | 0 mm | - | - | - |
| 1777926076 | 27.78° C | 48% | 1015.4 hPa | 0 mm | - | - | - |
| 1777924871 | 27.78° C | 47% | 1015.7 hPa | 0 mm | - | - | - |
| 1777922484 | 27.22° C | 47% | 1015.9 hPa | 0 mm | - | - | - |
| 1777921862 | 27.78° C | 46% | 1016 hPa | 0 mm | - | - | - |
| 1777918851 | 27.22° C | 46% | 1016.8 hPa | 0 mm | - | - | - |
| 1777917647 | 27.78° C | 44% | 1016.9 hPa | 0 mm | - | - | - |
| 1777914637 | 27.22° C | 44% | 1017.4 hPa | 0 mm | - | - | - |
| 1777914036 | 26.11° C | 45% | 1017.4 hPa | 0 mm | - | - | - |
| 1777905078 | 24.44° C | 51% | 1018.1 hPa | 0 mm | - | - | - |
| 1777902667 | 23.89° C | 58% | 1017.9 hPa | 0 mm | - | - | - |
| 1777899637 | 22.22° C | 63% | 1017.7 hPa | 0 mm | - | - | - |
| 1777894224 | 16.67° C | 87% | 1017.1 hPa | 0 mm | - | - | - |
| 1777893022 | 16.11° C | 90% | 1016.9 hPa | 0 mm | - | - | - |
| 1777885865 | 16.67° C | 89% | 1016.4 hPa | 0 mm | - | - | - |
| 1777884662 | 17.22° C | 86% | 1016.3 hPa | 0 mm | - | - | - |
| 1777881676 | 17.78° C | 83% | 1016.5 hPa | 0 mm | - | - | - |
| 1777875645 | 18.89° C | 77% | 1017 hPa | 0 mm | - | - | - |
| 1777875043 | 19.44° C | 76% | 1016.5 hPa | 0 mm | - | - | - |
* Rain since midnight (hover to see other rain measurements)
** Current wind speed in m/s (hover to see current wind gust speed)